Location: Unspecified
(48.5539°N, 71.6350°W)
Time: 22:15:14
(UTC-05:00)

ISS - Pass Details

Date: 29 January 2019
Orbit: 403 x 411 km, 51.6° (Epoch: 21 February)

Event Time Altitude Azimuth Distance (km) Brightness Sun altitude
Rises 15:14:34 0° 194° (SSW) 2,315 1.1 10.7°
Reaches altitude 10° 15:17:25 10° 167° (SSE) 1,463 -0.5 10.4°
Maximum altitude 15:19:06 13° 136° (SE) 1,278 -1.3 10.2°
Drops below altitude 10° 15:20:48 10° 105° (ESE) 1,471 -1.3 10.0°
Sets 15:23:41 0° 77° (ENE) 2,340 -0.5 9.6°
